Date,TemperatureHighF,TemperatureAvgF,TemperatureLowF,DewpointHighF,DewpointAvgF,DewpointLowF,HumidityHigh,HumidityAvg,HumidityLow,PressureMaxIn,PressureMinIn,WindSpeedMaxMPH,WindSpeedAvgMPH,GustSpeedMaxMPH,PrecipitationSumIn
2013-9-4,55.9,54.9,53.6,51.8,51.2,50.4,89,87,85,30.11,30.08,1,0,2,0.00
2013-9-5,91.4,74.4,52.7,59.7,50.2,39.6,91,48,17,30.14,30.04,9,3,13,0.00
2013-9-6,101.1,76.8,53.6,55.9,47.4,38.6,79,43,12,30.11,29.95,8,1,11,0.00
2013-9-7,102.0,77.1,52.7,56.2,48.0,31.9,85,48,10,30.10,29.91,7,2,11,0.00
2013-9-8,97.5,69.1,52.3,58.9,52.7,46.1,90,63,18,30.03,29.88,7,1,10,0.00
2013-9-9,99.9,77.0,59.4,58.6,56.0,54.9,86,54,24,29.92,29.80,8,3,8,0.00
2013-9-10,76.6,64.8,57.9,61.2,58.5,54.5,92,81,59,30.05,29.87,10,3,10,0.00
2013-9-11,72.9,65.9,62.2,61.9,60.3,59.1,93,83,67,30.14,30.04,5,1,5,0.00
2013-9-12,86.0,68.9,59.5,65.2,60.1,56.5,90,75,48,30.13,29.99,7,2,7,0.00
2013-9-13,87.3,63.1,56.5,61.6,54.9,51.6,96,77,37,30.15,29.88,8,1,14,0.00
2013-9-14,87.1,65.5,53.6,61.1,55.9,50.4,95,74,41,30.01,29.88,7,2,11,0.00
2013-9-15,86.4,66.7,51.1,60.9,56.2,48.3,93,72,40,30.04,29.96,7,2,12,0.00
2013-9-16,92.5,72.0,58.3,61.8,57.8,53.3,97,65,31,30.09,29.92,6,3,11,0.00
2013-9-17,84.2,68.0,52.3,57.9,51.9,48.6,93,61,32,30.08,29.98,10,4,17,0.00
2013-9-18,92.5,70.4,55.9,52.1,47.4,-45.4,75,49,12,30.11,29.99,19,3,102,0.00
2013-9-19,102.0,75.2,52.7,56.2,47.9,31.9,85,51,10,30.15,29.92,7,2,11,0.00
2013-9-20,84.4,63.0,45.5,62.9,54.3,42.3,96,76,43,30.02,29.96,10,2,15,0.01
2013-9-21,77.9,64.3,52.7,63.9,57.4,49.6,98,81,43,30.09,29.95,6,2,10,0.00
2013-9-22,82.2,63.5,46.8,57.2,49.2,42.6,97,66,26,30.20,30.08,9,1,12,0.00
2013-9-23,92.3,69.5,51.1,62.9,55.4,48.3,92,65,33,30.21,30.07,5,1,9,0.00
2013-9-24,85.6,67.1,54.5,58.1,51.2,45.0,91,62,25,30.16,30.06,10,2,14,0.00
2013-9-25,78.4,62.3,47.1,52.0,44.4,37.6,90,57,24,30.87,30.00,11,3,17,0.00
2013-9-26,89.1,64.8,50.2,45.2,39.6,26.4,68,45,11,30.20,30.03,8,1,11,0.00
2013-9-27,88.3,65.9,50.4,47.6,39.1,23.3,76,46,10,30.29,30.17,8,0,11,0.00
2013-9-28,88.7,64.5,44.6,55.4,42.6,22.3,84,55,10,30.28,30.17,8,1,12,0.00
2013-9-29,77.0,63.2,54.3,65.1,59.0,50.7,97,87,65,30.28,30.22,5,0,9,0.01
2013-9-30,83.1,66.1,52.2,68.8,61.6,47.2,98,86,59,30.24,30.15,6,1,8,0.00